QZS-1R

导读

QZS-1R是日本发射的准天顶卫星系统卫星,于2021年10月26日发射升空,替代了已经超期服役的首星“导”号。该卫星是日本区域增强型全球导航卫星系统的重要组成部分,可提升日本及亚太地区定位精度,增强日本在卫星导航领域的服务能力与自主性。

基本信息
目录编号:
49336
目录名称:
QZS-1R
国际标识:
2021-096A
轨道中心:
EARTH
卫星名称:
QZS-1R
卫星全名:
--
卫星状态:
在轨 (已飞行1699 天)
发射日期:
2021-10-26 UTC
国别 :
日本 (JP)
星等 :
--
轨道信息
数据来源 国际轨道数据 AOE轨道数据
星历时间 2026-06-19T23:10:56+0800
1天前
查看轨道信息
2026-06-20T23:00:00+0800
16小时前
查看轨道信息
半长轴 42169.523km 42169.691km
偏心率 0.07548 0.0754965
轨道倾角 37.467° 37.469°
近地点辐角 271.853° 271.864°
升交点赤经 79.546° 79.531°
平近点角 278.017° 276.199°
近地点 32608.43km 32607.889km
远地点 38974.342km 38975.219km
周期 1436.342分钟 1436.350分钟
每日圈数 1.002547 1.002541
详细信息
使用方式:
暂无
2D轨道图
3D轨道图
轨道高度分析图
轨道倾角分析图
轨道综合分析图
查看轨道综合分析图